Location: C�an Torras
(41.5052°N, 1.9280°E)
Time: 21:18:06
(UTC+00:00)

USA 229 - Pass Details

Date: 20 January 2021
Orbit: 964 x 1248 km, 63.4° (Epoch: 03 March)

Event Time Altitude Azimuth Distance (km) Brightness Sun altitude
Rises 19:40:53 0° 326° (NW) 3,965 7.1 -31.1°
Reaches altitude 10° 19:43:33 10° 329° (NNW) 3,043 6.4 -31.6°
Enters shadow 19:49:24 55° 1° (N) 1,398 4.1 -32.7°
